LRFT Weather Reports


time (UTC)temp
F
wind
direction
speed
knots
gust
knots
rain 1hr
in
rain 24hr
in
rain mn
in
humidity
%
barometer
mb
20260905170400 84 240 7.0 0.0 0.00 0.00 0.00 33 1014.0
20260905164900 90 270 12.2 0.0 0.00 0.00 0.00 27 1014.0
20260905163401 90 270 12.2 0.0 0.00 0.00 0.00 27 1014.0
20260905161858 90 270 12.2 0.0 0.00 0.00 0.00 27 1014.0
20260905160400 90 270 12.2 0.0 0.00 0.00 0.00 27 1014.0
20260905154910 90 270 12.2 0.0 0.00 0.00 0.00 27 1014.0
20260905153359 90 270 12.2 0.0 0.00 0.00 0.00 27 1014.0
20260905151900 90 270 12.2 0.0 0.00 0.00 0.00 27 1014.0
20260905150400 90 270 12.2 0.0 0.00 0.00 0.00 27 1014.0
20260905144853 91 270 13.9 0.0 0.00 0.00 0.00 24 1014.0
20260905143359 91 270 13.9 0.0 0.00 0.00 0.00 24 1014.0
20260905141857 91 270 13.9 0.0 0.00 0.00 0.00 24 1014.0
20260905140356 91 270 13.9 0.0 0.00 0.00 0.00 24 1014.0
20260905135020 0 0.0 0.0 0.00 0.00 0.00
20260905133400 91 270 9.6 20.0 0.00 0.00 0.00 24 1014.0
20260905131902 91 270 9.6 20.0 0.00 0.00 0.00 24 1014.0
20260905130421 91 270 9.6 20.0 0.00 0.00 0.00 24 1014.0
20260905124854 91 270 13.9 0.0 0.00 0.00 0.00 26 1015.0
20260905123400 91 270 13.9 0.0 0.00 0.00 0.00 26 1015.0
20260905121927 91 270 13.9 0.0 0.00 0.00 0.00 26 1015.0
20260905120401 91 270 13.9 0.0 0.00 0.00 0.00 26 1015.0
20260905114900 88 270 13.9 0.0 0.00 0.00 0.00 29 1016.0
20260905113400 88 270 13.9 0.0 0.00 0.00 0.00 29 1016.0
20260905111918 88 270 13.9 0.0 0.00 0.00 0.00 29 1016.0
20260905110359 88 270 13.9 0.0 0.00 0.00 0.00 29 1016.0
20260905104900 88 270 13.9 0.0 0.00 0.00 0.00 29 1016.0
20260905103400 88 270 13.9 0.0 0.00 0.00 0.00 29 1016.0
20260905101859 88 270 13.9 0.0 0.00 0.00 0.00 29 1016.0
20260905100400 88 270 13.9 0.0 0.00 0.00 0.00 29 1016.0
20260905095022 0 0.0 0.0 0.00 0.00 0.00
20260905093359 84 250 12.2 0.0 0.00 0.00 0.00 35 1017.0
20260905091900 84 250 12.2 0.0 0.00 0.00 0.00 35 1017.0
20260905090400 84 250 12.2 0.0 0.00 0.00 0.00 35 1017.0
20260905084859 81 250 12.2 0.0 0.00 0.00 0.00 39 1017.0
20260905083400 81 250 12.2 0.0 0.00 0.00 0.00 39 1017.0
20260905081859 81 250 12.2 0.0 0.00 0.00 0.00 39 1017.0
20260905080400 81 250 12.2 0.0 0.00 0.00 0.00 39 1017.0
20260905074859 0 0.0 0.0 0.00 0.00 0.00
20260905073408 0 0.0 0.0 0.00 0.00 0.00
20260905071900 0 0.0 0.0 0.00 0.00 0.00
20260905070400 0 0.0 0.0 0.00 0.00 0.00
20260905064901 0 0.0 0.0 0.00 0.00 0.00
20260905063401 0 0.0 0.0 0.00 0.00 0.00
20260905061900 0 0.0 0.0 0.00 0.00 0.00
20260905060401 0 0.0 0.0 0.00 0.00 0.00
20260905054900 66 230 6.1 0.0 0.00 0.00 0.00 73 1016.0
20260905053400 66 230 6.1 0.0 0.00 0.00 0.00 73 1016.0
20260905051859 66 230 6.1 0.0 0.00 0.00 0.00 73 1016.0
20260905050400 66 230 6.1 0.0 0.00 0.00 0.00 73 1016.0
20260905044901 59 210 5.2 0.0 0.00 0.00 0.00 88 1016.0
20260905043359 59 210 5.2 0.0 0.00 0.00 0.00 88 1016.0
20260905041900 59 210 5.2 0.0 0.00 0.00 0.00 88 1016.0
20260905040359 59 210 5.2 0.0 0.00 0.00 0.00 88 1016.0
20260905034901 57 180 5.2 0.0 0.00 0.00 0.00 88 1016.0
20260905033359 57 180 5.2 0.0 0.00 0.00 0.00 88 1016.0
20260905031900 57 180 5.2 0.0 0.00 0.00 0.00 88 1016.0
20260905030400 57 180 5.2 0.0 0.00 0.00 0.00 88 1016.0
20260905024913 63 210 6.1 0.0 0.00 0.00 0.00 94 1016.0
20260905023400 63 210 6.1 0.0 0.00 0.00 0.00 94 1016.0
20260905021900 63 210 6.1 0.0 0.00 0.00 0.00 94 1016.0
20260905020401 63 210 6.1 0.0 0.00 0.00 0.00 94 1016.0
20260905014900 63 210 6.1 0.0 0.00 0.00 0.00 94 1016.0
20260905013359 64 210 6.1 0.0 0.00 0.00 0.00 88 1016.0
20260905011900 64 210 6.1 0.0 0.00 0.00 0.00 88 1016.0
20260905010400 64 210 6.1 0.0 0.00 0.00 0.00 88 1016.0
20260905004900 64 210 6.1 0.0 0.00 0.00 0.00 88 1016.0
20260905003400 64 220 6.1 0.0 0.00 0.00 0.00 83 1017.0
20260905001900 64 220 6.1 0.0 0.00 0.00 0.00 83 1017.0
20260905000402 0 0.0 0.0 0.00 0.00 0.00
20260904234900 0 0.0 0.0 0.00 0.00 0.00
20260904233400 0 0.0 0.0 0.00 0.00 0.00
20260904231902 0 0.0 0.0 0.00 0.00 0.00
20260904230400 0 0.0 0.0 0.00 0.00 0.00
20260904224902 66 200 7.0 0.0 0.00 0.00 0.00 78 1017.0
20260904223400 66 200 7.0 0.0 0.00 0.00 0.00 78 1017.0
20260904221901 66 200 7.0 0.0 0.00 0.00 0.00 78 1017.0
20260904220400 66 200 7.0 0.0 0.00 0.00 0.00 78 1017.0
20260904214901 66 200 7.0 0.0 0.00 0.00 0.00 78 1017.0
20260904213359 68 200 7.0 0.0 0.00 0.00 0.00 69 1017.0
20260904211900 68 200 7.0 0.0 0.00 0.00 0.00 69 1017.0
20260904210359 68 200 7.0 0.0 0.00 0.00 0.00 69 1017.0
20260904204901 68 200 7.0 0.0 0.00 0.00 0.00 69 1017.0
20260904203400 70 180 7.0 0.0 0.00 0.00 0.00 60 1016.0
20260904201900 70 180 7.0 0.0 0.00 0.00 0.00 60 1016.0
20260904200423 0 0.0 0.0 0.00 0.00 0.00
20260904194859 73 220 7.0 0.0 0.00 0.00 0.00 50 1016.0
20260904193422 0 0.0 0.0 0.00 0.00 0.00
20260904191859 73 220 7.0 0.0 0.00 0.00 0.00 50 1016.0
20260904190401 73 220 7.0 0.0 0.00 0.00 0.00 50 1016.0
20260904184900 75 220 7.8 0.0 0.00 0.00 0.00 44 1016.0
20260904183359 75 220 7.8 0.0 0.00 0.00 0.00 44 1016.0
20260904181905 75 220 7.8 0.0 0.00 0.00 0.00 44 1016.0
20260904180359 75 220 7.8 0.0 0.00 0.00 0.00 44 1016.0
20260904174859 81 240 7.8 0.0 0.00 0.00 0.00 37 1015.0
20260904173400 81 240 7.8 0.0 0.00 0.00 0.00 37 1015.0
20260904171900 81 240 7.8 0.0 0.00 0.00 0.00 37 1015.0